星链-36227(STARLINK-36227)

导读

STARLINK-36227是美国SpaceX星链(Starlink)星座的一颗低轨通信卫星,于2025年12月14日发射入轨。它运行在约550公里近地轨道,作为星链大规模组网的组成部分,为全球提供高速低延迟卫星互联网服务,重点覆盖地面基础设施难以抵达的偏远区域、海洋及空域,助力消除数字鸿沟。该卫星延续星链设计,配备太阳能供电与星间链路能力,是SpaceX构建全球低轨通信星座计划的一环。星链项目的持续扩张,也引发了太空交通与天文观测等领域的争议。

基本信息
目录编号:
67095
目录名称:
STARLINK-36227
国际标识:
2025-298W
轨道中心:
EARTH
卫星名称:
星链-36227
卫星全名:
星链-36227(STARLINK-36227)
卫星状态:
在轨 (已飞行181 天)
发射日期:
2025-12-14 UTC
国别 :
美国 (US)
星等 :
--
轨道信息
数据来源 国际轨道数据
星历时间: 2026-06-12T14:13:57+0800
23小时前
查看轨道信息
半长轴: 6950.134km
偏心率: 0.0004319
轨道倾角: 70.000°
近地点辐角 254.497°
升交点赤经 135.986°
平近点角 105.571°
近地点: 568.995km
远地点: 574.999km
周期: 96.106分钟
每日圈数: 14.983491
详细信息
固有亮度:
5
最大亮度:
2.5
卫星平台:
Starlink V1.0
覆盖范围:
全球
运营商:
太空探索技术公司
运营商所在国:
美国
制造商(研发单位):
太空探索技术公司
制造商所在国:
美国
使用方式:
暂无
卫星简介
Starlink 计划是 SpaceX 推出的全球卫星互联网项目,通过发射低轨道卫星,为全球尤其是偏远地区提供高速、低延迟的互联网服务。自 2019 年起,Starlink 已部署数千颗卫星,旨在缩小全球数字鸿沟,推动互联网普及。该项目还为军事、航空等行业提供通信支持,带来广泛经济效益。
2D轨道图
3D轨道图
轨道高度分析图
轨道倾角分析图
轨道综合分析图
查看轨道综合分析图